Location: *
(43.9905°S, 176.4941°W)
Time: 18:06:46
(UTC+00:00)

Okean 2 - Pass Details

Date: 08 December 2019
Orbit: 559 x 578 km, 82.5° (Epoch: 19 January)

Event Time Altitude Azimuth Distance (km) Brightness Sun altitude
Rises 07:42:30 0° 191° (S) 2,826 7.8 -4.4°
Reaches altitude 10° 07:44:43 10° 192° (SSW) 1,921 6.9 -4.7°
Maximum altitude 07:48:57 75° 276° (W) 612 3.7 -5.3°
Drops below altitude 10° 07:53:09 10° 1° (N) 1,899 5.7 -5.8°
Sets 07:55:19 0° 2° (N) 2,790 6.5 -6.1°
